Location: *
(48.8489°N, 2.3218°E)
Time: 10:16:28
(UTC+00:00)

Cosmos 1666 - Pass Details

Date: 23 August 2019
Orbit: 497 x 523 km, 82.5° (Epoch: 14 September)

Event Time Altitude Azimuth Distance (km) Brightness Sun altitude
Exits shadow 20:14:57 20° 105° (ESE) 1,237 4.0 -13.1°
Maximum altitude 20:15:41 21° 88° (E) 1,195 4.1 -13.2°
Drops below altitude 10° 20:18:37 10° 38° (NE) 1,750 5.4 -13.6°
Sets 20:21:06 0° 23° (NNE) 2,638 6.5 -13.9°
